Time,TemperatureF,DewpointF,PressureIn,WindDirection,WindDirectionDegrees,WindSpeedMPH,WindSpeedGustMPH,Humidity,HourlyPrecipIn,Conditions,Clouds,dailyrainin,SolarRadiationWatts/m^2,SoftwareType,DateUTC
2013-01-14 00:12:00,22.0,16.0,-100.00,North,6,5.0,8.0,77,0.00,,,0.56,1.000000,,2013-01-14 06:12:00,
2013-01-14 00:22:00,22.0,16.0,-100.00,North,6,5.0,8.0,77,0.00,,,0.56,1.000000,,2013-01-14 06:22:00,
2013-01-14 00:33:00,22.0,16.0,-100.00,North,6,5.0,8.0,77,0.00,,,0.56,1.000000,,2013-01-14 06:33:00,
2013-01-14 00:43:00,22.0,16.0,-100.00,North,6,5.0,8.0,77,0.00,,,0.56,1.000000,,2013-01-14 06:43:00,
2013-01-14 00:52:00,22.0,16.0,-100.00,North,6,5.0,8.0,77,0.00,,,0.56,1.000000,,2013-01-14 06:52:00,
2013-01-14 01:12:00,21.0,15.0,-100.00,North,357,5.0,7.0,78,0.00,,,0.25,1.000000,,2013-01-14 07:12:00,
2013-01-14 01:22:00,21.0,15.0,-100.00,North,357,5.0,7.0,78,0.00,,,0.25,1.000000,,2013-01-14 07:22:00,
2013-01-14 01:33:00,21.0,15.0,-100.00,North,357,5.0,7.0,78,0.00,,,0.25,1.000000,,2013-01-14 07:33:00,
2013-01-14 01:42:00,21.0,15.0,-100.00,North,357,5.0,7.0,78,0.00,,,0.25,1.000000,,2013-01-14 07:42:00,
2013-01-14 01:52:00,21.0,15.0,-100.00,North,357,5.0,7.0,78,0.00,,,0.25,1.000000,,2013-01-14 07:52:00,
2013-01-14 02:12:00,21.0,15.0,-100.00,North,355,5.0,8.0,78,0.00,,,0.07,1.000000,,2013-01-14 08:12:00,
2013-01-14 02:22:00,21.0,15.0,-100.00,North,355,5.0,8.0,78,0.00,,,0.07,1.000000,,2013-01-14 08:22:00,
2013-01-14 02:32:00,21.0,15.0,-100.00,North,355,5.0,8.0,78,0.00,,,0.07,1.000000,,2013-01-14 08:32:00,
2013-01-14 02:42:00,21.0,15.0,-100.00,North,355,5.0,8.0,78,0.00,,,0.07,1.000000,,2013-01-14 08:42:00,
2013-01-14 02:52:00,21.0,15.0,-100.00,North,355,5.0,8.0,78,0.00,,,0.07,1.000000,,2013-01-14 08:52:00,
2013-01-14 03:22:00,20.0,14.0,-100.00,North,350,7.0,11.0,78,0.00,,,0.04,1.000000,,2013-01-14 09:22:00,
2013-01-14 03:33:00,20.0,14.0,-100.00,North,350,7.0,11.0,78,0.00,,,0.04,1.000000,,2013-01-14 09:33:00,
2013-01-14 03:42:00,20.0,14.0,-100.00,North,350,7.0,11.0,78,0.00,,,0.04,1.000000,,2013-01-14 09:42:00,
2013-01-14 03:52:00,20.0,14.0,-100.00,North,350,7.0,11.0,78,0.00,,,0.04,1.000000,,2013-01-14 09:52:00,
2013-01-14 04:22:00,20.0,14.0,-100.00,North,1,8.0,12.0,76,0.00,,,0.04,1.000000,,2013-01-14 10:22:00,
2013-01-14 04:32:00,20.0,14.0,-100.00,North,1,8.0,12.0,76,0.00,,,0.04,1.000000,,2013-01-14 10:32:00,
2013-01-14 04:42:00,20.0,14.0,-100.00,North,1,8.0,12.0,76,0.00,,,0.04,1.000000,,2013-01-14 10:42:00,
2013-01-14 04:52:00,20.0,14.0,-100.00,North,1,8.0,12.0,76,0.00,,,0.04,1.000000,,2013-01-14 10:52:00,
2013-01-14 04:53:00,19.0,12.0,-100.00,North,4,8.0,13.0,75,0.00,,,0.04,1.000000,,2013-01-14 10:53:00,
2013-01-14 05:12:00,19.0,12.0,-100.00,North,4,8.0,13.0,75,0.00,,,0.04,1.000000,,2013-01-14 11:12:00,
2013-01-14 05:22:00,19.0,12.0,-100.00,North,4,8.0,13.0,75,0.00,,,0.04,1.000000,,2013-01-14 11:22:00,
2013-01-14 05:32:00,19.0,12.0,-100.00,North,4,8.0,13.0,75,0.00,,,0.04,1.000000,,2013-01-14 11:32:00,
2013-01-14 05:42:00,19.0,12.0,-100.00,North,4,8.0,13.0,75,0.00,,,0.04,1.000000,,2013-01-14 11:42:00,
2013-01-14 06:12:00,19.0,12.0,-100.00,North,8,7.0,13.0,75,0.00,,,0.04,1.000000,,2013-01-14 12:12:00,
2013-01-14 06:23:00,19.0,12.0,-100.00,North,8,7.0,13.0,75,0.00,,,0.04,1.000000,,2013-01-14 12:23:00,
2013-01-14 06:33:00,19.0,12.0,-100.00,North,8,7.0,13.0,75,0.00,,,0.04,1.000000,,2013-01-14 12:33:00,
2013-01-14 06:43:00,19.0,12.0,-100.00,North,8,7.0,13.0,75,0.00,,,0.04,1.000000,,2013-01-14 12:43:00,
2013-01-14 06:52:00,19.0,12.0,-100.00,North,8,7.0,13.0,75,0.00,,,0.04,1.000000,,2013-01-14 12:52:00,
2013-01-14 07:12:00,18.0,11.0,-100.00,NNE,31,5.0,10.0,74,0.00,,,0.04,1.000000,,2013-01-14 13:12:00,
2013-01-14 07:23:00,18.0,11.0,-100.00,NNE,31,5.0,10.0,74,0.00,,,0.04,1.000000,,2013-01-14 13:23:00,
2013-01-14 07:33:00,18.0,11.0,-100.00,NNE,31,5.0,10.0,74,0.00,,,0.04,1.000000,,2013-01-14 13:33:00,
2013-01-14 07:43:00,18.0,11.0,-100.00,NNE,31,5.0,10.0,74,0.00,,,0.04,1.000000,,2013-01-14 13:43:00,
2013-01-14 07:52:00,18.0,11.0,-100.00,NNE,31,5.0,10.0,74,0.00,,,0.04,1.000000,,2013-01-14 13:52:00,
2013-01-14 07:53:00,20.0,12.0,-100.00,NNE,14,6.0,11.0,70,0.00,,,0.04,16.000000,,2013-01-14 13:53:00,
2013-01-14 08:13:00,20.0,12.0,-100.00,NNE,14,6.0,11.0,70,0.00,,,0.04,16.000000,,2013-01-14 14:13:00,
2013-01-14 08:23:00,20.0,12.0,-100.00,NNE,14,6.0,11.0,70,0.00,,,0.04,16.000000,,2013-01-14 14:23:00,
2013-01-14 08:33:00,20.0,12.0,-100.00,NNE,14,6.0,11.0,70,0.00,,,0.04,16.000000,,2013-01-14 14:33:00,
2013-01-14 08:43:00,20.0,12.0,-100.00,NNE,14,6.0,11.0,70,0.00,,,0.04,16.000000,,2013-01-14 14:43:00,
2013-01-14 08:53:00,22.0,12.0,-100.00,NNE,22,8.0,16.0,66,0.00,,,0.04,153.000000,,2013-01-14 14:53:00,
2013-01-14 09:12:00,22.0,12.0,-100.00,NNE,22,8.0,16.0,66,0.00,,,0.04,153.000000,,2013-01-14 15:12:00,
2013-01-14 09:23:00,22.0,12.0,-100.00,NNE,22,8.0,16.0,66,0.00,,,0.04,153.000000,,2013-01-14 15:23:00,
2013-01-14 09:33:00,22.0,12.0,-100.00,NNE,22,8.0,16.0,66,0.00,,,0.04,153.000000,,2013-01-14 15:33:00,
2013-01-14 09:43:00,22.0,12.0,-100.00,NNE,22,8.0,16.0,66,0.00,,,0.04,153.000000,,2013-01-14 15:43:00,
2013-01-14 09:53:00,23.0,12.0,-100.00,North,3,10.0,18.0,63,0.00,,,0.04,136.000000,,2013-01-14 15:53:00,
2013-01-14 10:12:00,23.0,12.0,-100.00,North,3,10.0,18.0,63,0.00,,,0.04,136.000000,,2013-01-14 16:12:00,
2013-01-14 10:23:00,23.0,12.0,-100.00,North,3,10.0,18.0,63,0.00,,,0.04,136.000000,,2013-01-14 16:23:00,
2013-01-14 10:33:00,23.0,12.0,-100.00,North,3,10.0,18.0,63,0.00,,,0.04,136.000000,,2013-01-14 16:33:00,
2013-01-14 10:43:00,23.0,12.0,-100.00,North,3,10.0,18.0,63,0.00,,,0.04,136.000000,,2013-01-14 16:43:00,
2013-01-14 10:53:00,24.0,13.0,-100.00,North,358,8.0,16.0,61,0.00,,,0.01,122.000000,,2013-01-14 16:53:00,
2013-01-14 11:23:00,24.0,13.0,-100.00,North,358,8.0,16.0,61,0.00,,,0.01,122.000000,,2013-01-14 17:23:00,
2013-01-14 11:33:00,24.0,13.0,-100.00,North,358,8.0,16.0,61,0.00,,,0.01,122.000000,,2013-01-14 17:33:00,
2013-01-14 11:43:00,24.0,13.0,-100.00,North,358,8.0,16.0,61,0.00,,,0.01,122.000000,,2013-01-14 17:43:00,
2013-01-14 12:13:00,25.0,13.0,-100.00,North,356,8.0,17.0,61,0.00,,,0.01,124.000000,,2013-01-14 18:13:00,
2013-01-14 12:23:00,25.0,13.0,-100.00,North,356,8.0,17.0,61,0.00,,,0.01,124.000000,,2013-01-14 18:23:00,
2013-01-14 12:33:00,25.0,13.0,-100.00,North,356,8.0,17.0,61,0.00,,,0.01,124.000000,,2013-01-14 18:33:00,
2013-01-14 12:43:00,25.0,13.0,-100.00,North,356,8.0,17.0,61,0.00,,,0.01,124.000000,,2013-01-14 18:43:00,
2013-01-14 12:52:00,25.0,13.0,-100.00,North,356,8.0,17.0,61,0.00,,,0.01,124.000000,,2013-01-14 18:52:00,
2013-01-14 13:22:00,25.0,13.0,-100.00,NNE,13,9.0,16.0,60,0.00,,,0.01,215.000000,,2013-01-14 19:22:00,
2013-01-14 13:33:00,25.0,13.0,-100.00,NNE,13,9.0,16.0,60,0.00,,,0.01,215.000000,,2013-01-14 19:33:00,
2013-01-14 13:43:00,25.0,13.0,-100.00,NNE,13,9.0,16.0,60,0.00,,,0.01,215.000000,,2013-01-14 19:43:00,
2013-01-14 13:52:00,25.0,13.0,-100.00,NNE,13,9.0,16.0,60,0.00,,,0.01,215.000000,,2013-01-14 19:52:00,
2013-01-14 13:53:00,27.0,16.0,-100.00,North,357,11.0,16.0,63,0.00,,,0.01,236.000000,,2013-01-14 19:53:00,
2013-01-14 14:22:00,27.0,16.0,-100.00,North,357,11.0,16.0,63,0.00,,,0.01,236.000000,,2013-01-14 20:22:00,
2013-01-14 14:33:00,27.0,16.0,-100.00,North,357,11.0,16.0,63,0.00,,,0.01,236.000000,,2013-01-14 20:33:00,
2013-01-14 14:43:00,27.0,16.0,-100.00,North,357,11.0,16.0,63,0.00,,,0.01,236.000000,,2013-01-14 20:43:00,
2013-01-14 14:53:00,28.0,17.0,-100.00,North,359,11.0,16.0,63,0.00,,,0.00,305.000000,,2013-01-14 20:53:00,
2013-01-14 15:12:00,28.0,17.0,-100.00,North,359,11.0,16.0,63,0.00,,,0.00,305.000000,,2013-01-14 21:12:00,
2013-01-14 15:23:00,28.0,17.0,-100.00,North,359,11.0,16.0,63,0.00,,,0.00,305.000000,,2013-01-14 21:23:00,
2013-01-14 15:33:00,28.0,17.0,-100.00,North,359,11.0,16.0,63,0.00,,,0.00,305.000000,,2013-01-14 21:33:00,
2013-01-14 15:42:00,28.0,17.0,-100.00,North,359,11.0,16.0,63,0.00,,,0.00,305.000000,,2013-01-14 21:42:00,
2013-01-14 16:23:00,30.0,14.0,-100.00,NNE,25,6.0,15.0,51,0.00,,,0.00,264.000000,,2013-01-14 22:23:00,
2013-01-14 16:33:00,30.0,14.0,-100.00,NNE,25,6.0,15.0,51,0.00,,,0.00,264.000000,,2013-01-14 22:33:00,
2013-01-14 16:43:00,30.0,14.0,-100.00,NNE,25,6.0,15.0,51,0.00,,,0.00,264.000000,,2013-01-14 22:43:00,
2013-01-14 16:52:00,30.0,14.0,-100.00,NNE,25,6.0,15.0,51,0.00,,,0.00,264.000000,,2013-01-14 22:52:00,
2013-01-14 17:12:00,30.0,15.0,-100.00,ENE,58,4.0,11.0,52,0.00,,,0.00,133.000000,,2013-01-14 23:12:00,
2013-01-14 17:23:00,30.0,15.0,-100.00,ENE,58,4.0,11.0,52,0.00,,,0.00,133.000000,,2013-01-14 23:23:00,
2013-01-14 17:33:00,30.0,15.0,-100.00,ENE,58,4.0,11.0,52,0.00,,,0.00,133.000000,,2013-01-14 23:33:00,
2013-01-14 17:43:00,30.0,15.0,-100.00,ENE,58,4.0,11.0,52,0.00,,,0.00,133.000000,,2013-01-14 23:43:00,
2013-01-14 17:52:00,30.0,15.0,-100.00,ENE,58,4.0,11.0,52,0.00,,,0.00,133.000000,,2013-01-14 23:52:00,
2013-01-14 18:12:00,27.0,14.0,-100.00,NE,56,2.0,6.0,57,0.00,,,0.00,6.000000,,2013-01-15 00:12:00,
2013-01-14 18:22:00,27.0,14.0,-100.00,NE,56,2.0,6.0,57,0.00,,,0.00,6.000000,,2013-01-15 00:22:00,
2013-01-14 18:33:00,27.0,14.0,-100.00,NE,56,2.0,6.0,57,0.00,,,0.00,6.000000,,2013-01-15 00:33:00,
2013-01-14 18:43:00,27.0,14.0,-100.00,NE,56,2.0,6.0,57,0.00,,,0.00,6.000000,,2013-01-15 00:43:00,
2013-01-14 18:52:00,27.0,14.0,-100.00,NE,56,2.0,6.0,57,0.00,,,0.00,6.000000,,2013-01-15 00:52:00,
2013-01-14 19:22:00,26.0,12.0,-100.00,NNE,29,4.0,6.0,55,0.00,,,0.00,1.000000,,2013-01-15 01:22:00,
2013-01-14 19:32:00,26.0,12.0,-100.00,NNE,29,4.0,6.0,55,0.00,,,0.00,1.000000,,2013-01-15 01:32:00,
2013-01-14 19:43:00,26.0,12.0,-100.00,NNE,29,4.0,6.0,55,0.00,,,0.00,1.000000,,2013-01-15 01:43:00,
2013-01-14 19:52:00,26.0,12.0,-100.00,NNE,29,4.0,6.0,55,0.00,,,0.00,1.000000,,2013-01-15 01:52:00,
2013-01-14 20:22:00,26.0,13.0,-100.00,NNE,15,5.0,8.0,58,0.00,,,0.00,1.000000,,2013-01-15 02:22:00,
2013-01-14 20:32:00,26.0,13.0,-100.00,NNE,15,5.0,8.0,58,0.00,,,0.00,1.000000,,2013-01-15 02:32:00,
2013-01-14 20:42:00,26.0,13.0,-100.00,NNE,15,5.0,8.0,58,0.00,,,0.00,1.000000,,2013-01-15 02:42:00,
2013-01-14 20:52:00,26.0,13.0,-100.00,NNE,15,5.0,8.0,58,0.00,,,0.00,1.000000,,2013-01-15 02:52:00,
2013-01-14 21:22:00,24.0,13.0,-100.00,NNE,14,6.0,9.0,62,0.00,,,0.00,1.000000,,2013-01-15 03:22:00,
2013-01-14 21:33:00,24.0,13.0,-100.00,NNE,14,6.0,9.0,62,0.00,,,0.00,1.000000,,2013-01-15 03:33:00,
2013-01-14 21:42:00,24.0,13.0,-100.00,NNE,14,6.0,9.0,62,0.00,,,0.00,1.000000,,2013-01-15 03:42:00,
2013-01-14 21:52:00,24.0,13.0,-100.00,NNE,14,6.0,9.0,62,0.00,,,0.00,1.000000,,2013-01-15 03:52:00,
2013-01-14 22:12:00,24.0,13.0,-100.00,NNE,18,7.0,10.0,63,0.00,,,0.00,1.000000,,2013-01-15 04:12:00,
2013-01-14 22:22:00,24.0,13.0,-100.00,NNE,18,7.0,10.0,63,0.00,,,0.00,1.000000,,2013-01-15 04:22:00,
2013-01-14 22:32:00,24.0,13.0,-100.00,NNE,18,7.0,10.0,63,0.00,,,0.00,1.000000,,2013-01-15 04:32:00,
2013-01-14 22:42:00,24.0,13.0,-100.00,NNE,18,7.0,10.0,63,0.00,,,0.00,1.000000,,2013-01-15 04:42:00,
2013-01-14 22:52:00,24.0,13.0,-100.00,NNE,18,7.0,10.0,63,0.00,,,0.00,1.000000,,2013-01-15 04:52:00,
2013-01-14 23:12:00,23.0,14.0,-100.00,NNE,16,7.0,11.0,67,0.00,,,0.00,1.000000,,2013-01-15 05:12:00,
2013-01-14 23:22:00,23.0,14.0,-100.00,NNE,16,7.0,11.0,67,0.00,,,0.00,1.000000,,2013-01-15 05:22:00,
2013-01-14 23:33:00,23.0,14.0,-100.00,NNE,16,7.0,11.0,67,0.00,,,0.00,1.000000,,2013-01-15 05:33:00,
2013-01-14 23:42:00,23.0,14.0,-100.00,NNE,16,7.0,11.0,67,0.00,,,0.00,1.000000,,2013-01-15 05:42:00,
2013-01-14 23:52:00,23.0,14.0,-100.00,NNE,16,7.0,11.0,67,0.00,,,0.00,1.000000,,2013-01-15 05:52:00,